ALK120 VRMG-VCBI

Flight info

Callsign ALK120
Flight time N/A
Altitude 39000
Route DUKET G454 PADLA DCT LALUM
Aircraft A20N/M-SDE2E3FGHIRWXY/LB1

Departure

Time N/A
Airport Gan International Airport (VRMG)

Arrival

Time 2026-05-07 06:10
Airport Bandaranaike International Colombo Airport (VCBI)
Time Latitude Longitude Altitude Speed Heading
2026-05-07 04:46 0.51545 74.04321 31937 ft 465 kts 39°
2026-05-07 04:47 0.54067 74.06343 32327 ft 464 kts 40°
2026-05-07 04:47 0.56578 74.08356 32713 ft 463 kts 40°
2026-05-07 04:47 0.59086 74.10367 33101 ft 461 kts 40°
2026-05-07 04:47 0.61585 74.12370 33470 ft 460 kts 40°
2026-05-07 04:48 0.64078 74.14368 33823 ft 459 kts 40°
2026-05-07 04:48 0.66567 74.16363 34147 ft 458 kts 40°
2026-05-07 04:48 0.69048 74.18351 34461 ft 456 kts 40°
2026-05-07 04:48 0.71520 74.20332 34769 ft 455 kts 40°
2026-05-07 04:49 0.73977 74.22302 35063 ft 454 kts 40°
2026-05-07 04:49 0.76445 74.24280 35371 ft 453 kts 40°
2026-05-07 04:49 0.78897 74.26246 35681 ft 451 kts 40°
2026-05-07 04:49 0.81308 74.28179 35987 ft 450 kts 40°
2026-05-07 04:50 0.83774 74.30156 36302 ft 448 kts 40°
2026-05-07 04:50 0.86205 74.32106 36597 ft 447 kts 40°
2026-05-07 04:50 0.88593 74.34020 36882 ft 446 kts 40°
2026-05-07 04:50 0.91010 74.35959 37170 ft 445 kts 40°
2026-05-07 04:51 0.93419 74.37890 37452 ft 443 kts 40°
2026-05-07 04:51 0.95849 74.39838 37753 ft 442 kts 40°
2026-05-07 04:51 0.98241 74.41757 38021 ft 440 kts 40°
2026-05-07 04:51 1.00625 74.43669 38285 ft 439 kts 40°
2026-05-07 04:52 1.02999 74.45573 38547 ft 437 kts 40°
2026-05-07 04:52 1.05366 74.47471 38749 ft 436 kts 40°
2026-05-07 04:52 1.10088 74.51258 38863 ft 434 kts 40°
2026-05-07 04:53 1.14793 74.55031 38862 ft 433 kts 40°
2026-05-07 04:53 1.19492 74.58800 38865 ft 433 kts 40°
2026-05-07 04:54 1.24149 74.62535 38865 ft 432 kts 40°
2026-05-07 04:54 1.28866 74.66318 38864 ft 432 kts 40°
2026-05-07 04:55 1.33524 74.70053 38868 ft 432 kts 40°
2026-05-07 04:55 1.38213 74.73814 38867 ft 432 kts 40°
2026-05-07 04:56 1.42907 74.77579 38868 ft 433 kts 40°
2026-05-07 04:56 1.47600 74.81344 38867 ft 433 kts 40°
2026-05-07 04:57 1.52302 74.85116 38866 ft 433 kts 40°
2026-05-07 04:57 1.57001 74.88886 38870 ft 433 kts 40°
2026-05-07 04:58 1.61704 74.92659 38868 ft 434 kts 40°
2026-05-07 04:58 1.66410 74.96435 38871 ft 434 kts 40°
2026-05-07 04:59 1.71114 75.00209 38869 ft 434 kts 40°
2026-05-07 04:59 1.75822 75.03987 38871 ft 434 kts 40°
2026-05-07 05:00 1.80510 75.07749 38873 ft 434 kts 40°
2026-05-07 05:00 1.85228 75.11535 38869 ft 434 kts 40°
2026-05-07 05:01 1.89931 75.15309 38865 ft 433 kts 40°
2026-05-07 05:01 1.94632 75.19085 38868 ft 433 kts 40°
2026-05-07 05:02 1.99329 75.22856 38867 ft 433 kts 40°
2026-05-07 05:02 2.04027 75.26627 38869 ft 433 kts 40°
2026-05-07 05:03 2.08724 75.30398 38862 ft 433 kts 40°
2026-05-07 05:03 2.13427 75.34162 38862 ft 433 kts 40°
2026-05-07 05:04 2.18126 75.37929 38859 ft 433 kts 40°
2026-05-07 05:04 2.22823 75.41698 38858 ft 433 kts 40°
2026-05-07 05:05 2.27517 75.45468 38860 ft 433 kts 40°
2026-05-07 05:05 2.32176 75.49223 38855 ft 433 kts 41°
2026-05-07 05:06 2.36904 75.53030 38855 ft 433 kts 40°
2026-05-07 05:06 2.41601 75.56805 38855 ft 434 kts 40°
2026-05-07 05:07 2.46305 75.60583 38856 ft 434 kts 40°
2026-05-07 05:07 2.51010 75.64364 38856 ft 434 kts 41°
2026-05-07 05:08 2.55720 75.68146 38853 ft 434 kts 41°
2026-05-07 05:08 2.60431 75.71931 38853 ft 435 kts 41°
2026-05-07 05:09 2.65146 75.75719 38856 ft 435 kts 41°
2026-05-07 05:09 2.69863 75.79510 38858 ft 435 kts 41°
2026-05-07 05:10 2.73786 75.82660 38859 ft 435 kts 41°
2026-05-07 05:10 2.78507 75.86451 38858 ft 435 kts 41°
2026-05-07 05:11 2.83226 75.90245 38863 ft 435 kts 41°
2026-05-07 05:11 2.87948 75.94043 38860 ft 435 kts 41°
2026-05-07 05:12 2.92669 75.97839 38860 ft 435 kts 41°
2026-05-07 05:12 2.97390 76.01636 38858 ft 435 kts 41°
2026-05-07 05:13 3.02115 76.05432 38860 ft 435 kts 41°
2026-05-07 05:13 3.06834 76.09226 38857 ft 435 kts 41°
2026-05-07 05:14 3.11520 76.13001 38856 ft 435 kts 41°
2026-05-07 05:14 3.16272 76.16824 38857 ft 435 kts 41°
2026-05-07 05:15 3.20961 76.20597 38856 ft 435 kts 41°
2026-05-07 05:15 3.25680 76.24395 38855 ft 435 kts 41°
2026-05-07 05:16 3.30397 76.28193 38858 ft 435 kts 41°
2026-05-07 05:16 3.35113 76.31992 38852 ft 435 kts 41°
2026-05-07 05:17 3.39832 76.35790 38853 ft 435 kts 41°
2026-05-07 05:17 3.44552 76.39590 38851 ft 435 kts 41°
2026-05-07 05:18 3.49270 76.43393 38852 ft 436 kts 41°
2026-05-07 05:18 3.53988 76.47195 38853 ft 436 kts 41°
2026-05-07 05:19 3.58711 76.51000 38856 ft 436 kts 41°
2026-05-07 05:19 3.63435 76.54807 38850 ft 436 kts 41°
2026-05-07 05:20 3.68163 76.58618 38857 ft 436 kts 41°
2026-05-07 05:20 3.72892 76.62430 38856 ft 436 kts 41°
2026-05-07 05:21 3.79988 76.68154 38856 ft 437 kts 41°
2026-05-07 05:22 3.84721 76.71967 38858 ft 437 kts 41°
2026-05-07 05:22 3.89457 76.75783 38860 ft 437 kts 41°
2026-05-07 05:23 3.94168 76.79579 38858 ft 437 kts 41°
2026-05-07 05:23 3.98939 76.83425 38856 ft 437 kts 41°
2026-05-07 05:24 4.03648 76.87223 38858 ft 438 kts 41°
2026-05-07 05:24 4.08387 76.91046 38861 ft 438 kts 41°
2026-05-07 05:25 4.13129 76.94873 38861 ft 438 kts 41°
2026-05-07 05:25 4.17867 76.98697 38855 ft 438 kts 41°
2026-05-07 05:26 4.22608 77.02523 38855 ft 437 kts 41°
2026-05-07 05:26 4.27347 77.06347 38861 ft 437 kts 41°
2026-05-07 05:27 4.32083 77.10171 38856 ft 437 kts 41°
2026-05-07 05:27 4.36818 77.13996 38852 ft 437 kts 41°
2026-05-07 05:28 4.41553 77.17820 38850 ft 437 kts 40°
2026-05-07 05:28 4.46286 77.21643 38856 ft 437 kts 40°
2026-05-07 05:29 4.51018 77.25466 38852 ft 437 kts 40°
2026-05-07 05:29 4.55750 77.29290 38848 ft 437 kts 40°
2026-05-07 05:30 4.60481 77.33114 38851 ft 437 kts 40°
2026-05-07 05:30 4.65211 77.36938 38850 ft 437 kts 40°
2026-05-07 05:31 4.69944 77.40764 38847 ft 437 kts 40°
2026-05-07 05:31 4.74680 77.44593 38847 ft 437 kts 40°
2026-05-07 05:32 4.79409 77.48422 38853 ft 437 kts 40°
2026-05-07 05:32 4.84111 77.52228 38856 ft 437 kts 40°
2026-05-07 05:33 4.88844 77.56059 38859 ft 437 kts 40°
2026-05-07 05:33 4.93576 77.59894 38857 ft 437 kts 40°
2026-05-07 05:34 4.98307 77.63725 38857 ft 437 kts 40°
2026-05-07 05:34 5.03046 77.67555 38852 ft 437 kts 40°
2026-05-07 05:35 5.07783 77.71382 38852 ft 437 kts 40°
2026-05-07 05:35 5.12519 77.75212 38852 ft 437 kts 40°
2026-05-07 05:36 5.17254 77.79046 38853 ft 437 kts 40°
2026-05-07 05:36 5.21987 77.82881 38847 ft 437 kts 40°
2026-05-07 05:37 5.26717 77.86715 38853 ft 437 kts 40°
2026-05-07 05:37 5.31446 77.90552 38852 ft 437 kts 40°
2026-05-07 05:38 5.36174 77.94388 38850 ft 437 kts 40°
2026-05-07 05:38 5.40904 77.98224 38849 ft 437 kts 40°
2026-05-07 05:39 5.45634 78.02061 38846 ft 437 kts 40°
2026-05-07 05:39 5.50365 78.05899 38845 ft 437 kts 40°
2026-05-07 05:40 5.55095 78.09737 38853 ft 437 kts 40°
2026-05-07 05:40 5.59827 78.13574 38849 ft 437 kts 40°
2026-05-07 05:41 5.64562 78.17415 38845 ft 438 kts 40°
2026-05-07 05:41 5.69263 78.21233 38850 ft 438 kts 40°
2026-05-07 05:42 5.73996 78.25073 38845 ft 438 kts 40°
2026-05-07 05:42 5.78736 78.28921 38854 ft 438 kts 40°
2026-05-07 05:43 5.83471 78.32769 38848 ft 438 kts 40°
2026-05-07 05:43 5.88212 78.36620 38844 ft 438 kts 40°
2026-05-07 05:44 5.92951 78.40471 38845 ft 438 kts 40°
2026-05-07 05:44 5.97694 78.44327 38846 ft 439 kts 40°
2026-05-07 05:45 6.02438 78.48185 38846 ft 439 kts 40°
2026-05-07 05:45 6.07185 78.52046 38847 ft 439 kts 40°
2026-05-07 05:46 6.11938 78.55912 38841 ft 440 kts 40°
2026-05-07 05:46 6.16715 78.59750 38634 ft 439 kts 38°
2026-05-07 05:46 6.19132 78.61626 38385 ft 439 kts 38°
2026-05-07 05:47 6.21562 78.63506 37800 ft 443 kts 38°
2026-05-07 05:47 6.24020 78.65411 36937 ft 449 kts 38°
2026-05-07 05:47 6.26495 78.67334 36211 ft 450 kts 39°
2026-05-07 05:47 6.28975 78.69266 35420 ft 453 kts 39°
2026-05-07 05:48 6.31475 78.71218 34636 ft 456 kts 39°
2026-05-07 05:48 6.33992 78.73182 33787 ft 460 kts 39°
2026-05-07 05:48 6.36533 78.75164 32857 ft 464 kts 39°
2026-05-07 05:48 6.39081 78.77156 31965 ft 466 kts 40°
2026-05-07 05:49 6.41492 78.79330 31091 ft 467 kts 46°
2026-05-07 05:49 6.43651 78.81773 30359 ft 466 kts 53°
2026-05-07 05:49 6.45656 78.84311 29816 ft 461 kts 52°
2026-05-07 05:49 6.47661 78.86817 29106 ft 458 kts 52°
2026-05-07 05:50 6.49653 78.89296 28474 ft 453 kts 52°
2026-05-07 05:50 6.51626 78.91747 27827 ft 449 kts 52°
2026-05-07 05:50 6.53584 78.94182 27181 ft 446 kts 52°
2026-05-07 05:50 6.55523 78.96595 26491 ft 444 kts 52°
2026-05-07 05:51 6.57455 78.98996 25887 ft 439 kts 52°
2026-05-07 05:51 6.59376 79.01382 25245 ft 437 kts 52°
2026-05-07 05:51 6.61285 79.03755 24595 ft 435 kts 52°
2026-05-07 05:51 6.63184 79.06121 23942 ft 433 kts 52°
2026-05-07 05:52 6.65054 79.08490 23267 ft 432 kts 52°
2026-05-07 05:52 6.66903 79.10854 22602 ft 428 kts 52°
2026-05-07 05:52 6.68731 79.13195 21962 ft 423 kts 52°
2026-05-07 05:52 6.70543 79.15512 21315 ft 420 kts 52°
2026-05-07 05:53 6.72342 79.17810 20637 ft 417 kts 52°
2026-05-07 05:53 6.74131 79.20093 20029 ft 414 kts 52°
2026-05-07 05:53 6.75909 79.22360 19396 ft 411 kts 52°
2026-05-07 05:53 6.77657 79.24586 18759 ft 409 kts 52°
2026-05-07 05:54 6.79420 79.26829 18113 ft 407 kts 52°
2026-05-07 05:54 6.81174 79.29061 17421 ft 404 kts 52°
2026-05-07 05:54 6.82905 79.31266 16810 ft 400 kts 52°
2026-05-07 05:54 6.84618 79.33451 16177 ft 396 kts 52°
2026-05-07 05:55 6.86318 79.35619 15536 ft 393 kts 52°
2026-05-07 05:55 6.88003 79.37772 14898 ft 391 kts 52°
2026-05-07 05:55 6.89674 79.39910 14285 ft 388 kts 52°
2026-05-07 05:55 6.91333 79.42036 13672 ft 386 kts 52°
2026-05-07 05:56 6.93004 79.44128 13055 ft 381 kts 49°
2026-05-07 05:56 6.94891 79.45982 12444 ft 377 kts 40°
2026-05-07 05:56 6.96947 79.47604 11842 ft 373 kts 38°
2026-05-07 05:56 6.98987 79.49204 11250 ft 370 kts 38°
2026-05-07 05:57 7.01001 79.50792 10773 ft 364 kts 38°
2026-05-07 05:57 7.02969 79.52344 10466 ft 353 kts 38°
2026-05-07 05:57 7.04859 79.53836 10335 ft 338 kts 38°
2026-05-07 05:57 7.06668 79.55267 10203 ft 323 kts 38°
2026-05-07 05:58 7.08398 79.56636 10093 ft 310 kts 38°
2026-05-07 05:58 7.10063 79.57956 9865 ft 301 kts 38°
2026-05-07 05:58 7.11704 79.59257 9460 ft 299 kts 38°
2026-05-07 05:58 7.13330 79.60545 9008 ft 296 kts 38°
2026-05-07 05:59 7.14943 79.61822 8396 ft 294 kts 38°
2026-05-07 05:59 7.16027 79.62679 8003 ft 292 kts 38°
2026-05-07 05:59 7.17612 79.63934 7516 ft 286 kts 38°
2026-05-07 05:59 7.19156 79.65156 7116 ft 278 kts 38°
2026-05-07 06:00 7.20658 79.66344 6735 ft 272 kts 38°
2026-05-07 06:00 7.22146 79.67522 6342 ft 273 kts 38°
2026-05-07 06:00 7.23639 79.68703 5944 ft 273 kts 38°
2026-05-07 06:00 7.25132 79.69885 5549 ft 273 kts 38°
2026-05-07 06:01 7.26621 79.71068 5156 ft 273 kts 38°
2026-05-07 06:01 7.28110 79.72252 4771 ft 273 kts 38°
2026-05-07 06:01 7.29601 79.73437 4369 ft 273 kts 38°
2026-05-07 06:01 7.31080 79.74611 4166 ft 269 kts 38°
2026-05-07 06:02 7.32584 79.75794 4066 ft 276 kts 37°
2026-05-07 06:02 7.34090 79.76976 3968 ft 273 kts 38°
2026-05-07 06:02 7.35567 79.78138 3873 ft 273 kts 38°
2026-05-07 06:02 7.37084 79.79336 3781 ft 273 kts 38°
2026-05-07 06:03 7.38554 79.80501 3684 ft 273 kts 38°
2026-05-07 06:03 7.39881 79.81837 3565 ft 267 kts 58°
2026-05-07 06:03 7.40473 79.83559 3375 ft 259 kts 86°
2026-05-07 06:03 7.40210 79.85313 2973 ft 251 kts 116°
2026-05-07 06:04 7.39269 79.86728 2843 ft 237 kts 129°
2026-05-07 06:04 7.38258 79.87998 2652 ft 230 kts 130°
2026-05-07 06:04 7.37267 79.89255 2369 ft 229 kts 129°
2026-05-07 06:04 7.36322 79.90512 2230 ft 220 kts 127°
2026-05-07 06:05 7.35438 79.91720 2111 ft 211 kts 128°
2026-05-07 06:05 7.34538 79.92910 1767 ft 217 kts 129°
2026-05-07 06:05 7.33619 79.94092 1663 ft 210 kts 129°
2026-05-07 06:05 7.32756 79.95204 1636 ft 194 kts 129°
2026-05-07 06:06 7.31956 79.96241 1539 ft 181 kts 129°
2026-05-07 06:06 7.31124 79.97096 1474 ft 164 kts 157°
2026-05-07 06:06 7.30089 79.97161 1485 ft 143 kts 196°
2026-05-07 06:06 7.29158 79.96771 1497 ft 148 kts 211°
2026-05-07 06:07 7.28309 79.96212 1490 ft 143 kts 217°
2026-05-07 06:07 7.27516 79.95616 1506 ft 144 kts 219°
2026-05-07 06:07 7.26706 79.94994 1498 ft 146 kts 218°
2026-05-07 06:07 7.25907 79.94377 1509 ft 145 kts 218°
2026-05-07 06:08 7.25129 79.93780 1420 ft 135 kts 218°
2026-05-07 06:08 7.24402 79.93219 1241 ft 130 kts 218°
2026-05-07 06:08 7.23675 79.92657 1062 ft 131 kts 219°
2026-05-07 06:08 7.22963 79.92110 917 ft 128 kts 219°
2026-05-07 06:09 7.22248 79.91556 771 ft 129 kts 219°
2026-05-07 06:09 7.21521 79.90997 613 ft 132 kts 219°
2026-05-07 06:09 7.20800 79.90440 419 ft 127 kts 219°
2026-05-07 06:09 7.20111 79.89911 276 ft 126 kts 221°
2026-05-07 06:10 7.19415 79.89372 99 ft 127 kts 220°
2026-05-07 06:10 7.18743 79.88853 29 ft 109 kts 222°
2026-05-07 06:10 7.18305 79.88519 27 ft 51 kts 219°
2026-05-07 06:10 7.18094 79.88363 28 ft 35 kts 216°
2026-05-07 06:11 7.17926 79.88231 29 ft 19 kts 217°
2026-05-07 06:11 7.17863 79.88220 29 ft 2 kts 164°
2026-05-07 06:11 7.17858 79.88223 30 ft 1 kts 147°
2026-05-07 06:11 7.17845 79.88246 29 ft 8 kts 122°
2026-05-07 06:12 7.17826 79.88272 29 ft 0 kts 127°
2026-05-07 06:12 7.17819 79.88282 28 ft 4 kts 126°
2026-05-07 06:13 7.17796 79.88330 27 ft 11 kts 95°
2026-05-07 06:13 7.17842 79.88392 27 ft 13 kts 53°
2026-05-07 06:13 7.17825 79.88478 27 ft 15 kts 123°
2026-05-07 06:13 7.17761 79.88565 27 ft 15 kts 126°
2026-05-07 06:14 7.17719 79.88623 27 ft 11 kts 128°
2026-05-07 06:14 7.17673 79.88616 27 ft 8 kts 229°
2026-05-07 06:14 7.17629 79.88578 27 ft 7 kts 218°
2026-05-07 06:14 7.17615 79.88567 27 ft 0 kts 218°